Location: Unspecified
(0.0000°N, 0.0000°E)
Time: 12:13:31
(UTC+00:00)

N. Korean satellite - Pass Details

Date: 04 December 2019
Orbit: 455 x 506 km, 97.2° (Epoch: 10 December)

Event Time Altitude Azimuth Distance (km) Brightness Sun altitude
Rises 04:39:03 0° 45° (NE) 2,486 10.5 -16.4°
Reaches altitude 10° 04:42:13 10° 78° (ENE) 1,605 10.0 -15.7°
Maximum altitude 04:43:33 12° 101° (E) 1,488 10.3 -15.3°
Drops below altitude 10° 04:44:54 10° 124° (SE) 1,601 10.5 -15.0°
Sets 04:48:02 0° 157° (SSE) 2,472 10.9 -14.3°
